EW1476 Weather Reports


time (UTC)temp
C
wind
direction
speed
KPH
gust
KPH
rain 1hr
cm
rain 24hr
cm
rain mn
cm
humidity
%
barometer
mb
20260504081512 7 212 0.0 0.0 0.00 0.00 0.00 73 1015.5
20260504050024 4 272 0.0 0.0 0.00 0.00 0.00 79 1016.0
20260504044522 5 272 0.0 0.0 0.00 0.00 0.00 77 1015.9
20260504043022 5 272 0.0 0.0 0.00 0.00 0.00 77 1015.9
20260504041520 5 272 0.0 0.0 0.00 0.00 0.00 77 1015.9
20260504040018 5 272 0.0 0.0 0.00 0.00 0.00 79 1015.8
20260504034514 5 272 0.0 0.0 0.00 0.00 0.00 78 1015.7
20260504033029 5 272 0.0 0.0 0.00 0.00 0.00 77 1015.6
20260504031526 5 272 0.0 0.0 0.00 0.00 0.00 76 1015.3
20260504030035 5 272 0.0 0.0 0.00 0.00 0.00 73 1015.2
20260504024522 6 272 0.0 0.0 0.00 0.00 0.00 74 1015.3
20260504023020 6 272 0.0 0.0 0.00 0.00 0.00 71 1015.3
20260504021515 6 272 0.0 0.0 0.00 0.00 0.00 70 1015.3
20260504020029 7 272 0.0 0.0 0.00 0.00 0.00 68 1015.2
20260504014525 7 272 0.0 0.0 0.00 0.00 0.00 68 1015.3
20260504013026 8 272 0.0 0.0 0.00 0.00 0.00 61 1015.3
20260504011523 9 272 0.0 0.0 0.00 0.00 0.00 62 1015.2
20260504010020 10 272 0.0 0.0 0.00 0.00 0.00 51 1015.1
20260504004529 11 272 0.0 0.0 0.00 0.00 0.00 47 1015.0
20260504003028 12 272 0.0 0.0 0.00 0.00 0.00 42 1014.7
20260504001527 12 272 0.0 0.0 0.00 0.00 0.00 39 1014.6
20260504000026 13 271 0.0 0.0 0.00 0.00 0.00 37 1014.5
20260503234526 13 272 0.0 0.0 0.00 0.00 0.00 34 1014.4
20260503233022 14 272 0.0 3.2 0.00 0.00 0.00 33 1014.3
20260503231520 14 260 1.6 3.2 0.00 0.00 0.00 32 1014.1
20260503230014 15 272 0.0 3.2 0.00 0.00 0.00 31 1014.0
20260503224508 15 271 3.2 9.7 0.00 0.00 0.00 32 1014.1
20260503223010 15 306 1.6 6.4 0.00 0.00 0.00 32 1014.2
20260503221525 15 317 0.0 4.8 0.00 0.00 0.00 33 1014.1
20260503220034 15 315 3.2 9.7 0.00 0.00 0.00 31 1014.2
20260503214518 15 330 3.2 6.4 0.00 0.00 0.00 30 1014.2
20260503213016 15 309 3.2 11.3 0.00 0.00 0.00 30 1014.2
20260503211518 15 307 3.2 11.3 0.00 0.00 0.00 31 1014.2
20260503210016 15 245 3.2 6.4 0.00 0.00 0.00 30 1014.3
20260503204539 14 303 4.8 8.0 0.00 0.00 0.00 30 1014.3
20260503203011 14 317 4.8 11.3 0.00 0.00 0.00 31 1014.2
20260503201525 13 301 3.2 11.3 0.00 0.00 0.00 32 1014.5
20260503200018 13 307 1.6 9.7 0.00 0.00 0.00 32 1014.6
20260503194521 13 324 4.8 11.3 0.00 0.00 0.00 32 1014.9
20260503193012 13 281 1.6 6.4 0.00 0.00 0.00 37 1015.1
20260503191508 13 280 3.2 14.5 0.00 0.00 0.00 34 1015.4
20260503190004 12 298 4.8 9.7 0.00 0.00 0.00 36 1015.5
20260503184527 12 243 3.2 8.0 0.00 0.00 0.00 37 1015.7
20260503183021 12 300 3.2 8.0 0.00 0.00 0.00 37 1015.8
20260503181517 12 317 3.2 11.3 0.00 0.00 0.00 37 1015.9
20260503180025 12 221 0.0 9.7 0.00 0.00 0.00 37 1016.0
20260503174519 11 319 4.8 11.3 0.00 0.00 0.00 38 1016.0
20260503173028 11 295 4.8 11.3 0.00 0.00 0.00 39 1016.1
20260503171528 10 316 4.8 9.7 0.00 0.00 0.00 40 1016.3